Location: Capvern
(43.1036°N, 0.3160°E)
Time: 23:17:46
(UTC+00:00)

CZ-4B R/B - Pass Details

Date: 16 October 2021
Orbit: 808 x 882 km, 99.1° (Epoch: 04 December)

Event Time Altitude Azimuth Distance (km) Brightness Sun altitude
Rises 18:31:49 0° 180° (S) 3,441 6.4 -14.9°
Reaches altitude 10° 18:34:15 10° 186° (S) 2,515 5.7 -15.4°
Maximum altitude 18:39:40 49° 260° (W) 1,124 4.3 -16.4°
Drops below altitude 10° 18:45:10 10° 335° (NNW) 2,550 6.1 -17.4°
Sets 18:47:40 0° 341° (NNW) 3,493 6.7 -17.8°
